When you browse on this site, cookies collect data to enhance your experience and personalize the content and advertising you see.
Visit our Privacy Policy to learn more. By continuing to use the site, you agree to this use of cookies and data.
  • In Latvia
  • List of Countries
  • For 7 days
  • Water Temperature
  • Weather Map
  • Weather Widgets
  • user-avatar
    Login

    Hourly Weather Varadero

    Today, 19 January, Sunday

    Time Temperature Precipitation Wind Pressure Humidity
    00:00 +23°C° 0.2 mm 7 mps 765 mmHg 85%
    01:00 +23°C° 0 mm 7 mps 764 mmHg 86%
    02:00 +23°C° 0.2 mm 7 mps 764 mmHg 87%
    03:00 +22°C° 0.2 mm 6 mps 764 mmHg 88%
    04:00 +22°C° 0.2 mm 6 mps 763 mmHg 89%
    05:00 +22°C° 0.2 mm 6 mps 763 mmHg 91%
    06:00 +21°C° 0.2 mm 6 mps 764 mmHg 92%
    07:00 +21°C° 0 mm 6 mps 764 mmHg 93%
    08:00 +23°C° 0.1 mm 6 mps 764 mmHg 87%
    09:00 +24°C° 0.1 mm 6 mps 764 mmHg 80%
    10:00 +27°C° 0.1 mm 6 mps 764 mmHg 74%
    11:00 +28°C° 0 mm 6 mps 764 mmHg 68%
    12:00 +29°C° 0 mm 5 mps 764 mmHg 62%
    13:00 +30°C° 0 mm 5 mps 763 mmHg 56%
    14:00 +30°C° 0.2 mm 5 mps 763 mmHg 61%
    15:00 +29°C° 0.2 mm 6 mps 762 mmHg 67%
    16:00 +28°C° 0.2 mm 6 mps 762 mmHg 72%
    17:00 +27°C° 0.1 mm 6 mps 762 mmHg 78%
    18:00 +24°C° 0.1 mm 6 mps 762 mmHg 84%
    19:00 +23°C° 0.1 mm 6 mps 763 mmHg 89%
    20:00 +23°C° 0.1 mm 6 mps 763 mmHg 91%
    21:00 +22°C° 0.1 mm 5 mps 763 mmHg 92%
    22:00 +22°C° 0.1 mm 4 mps 763 mmHg 94%
    23:00 +21°C° 0.1 mm 4 mps 763 mmHg 94%

    Tomorrow, 20 January, Monday

    Time Temperature Precipitation Wind Pressure Humidity
    00:00 +21°C° 0.1 mm 4 mps 763 mmHg 94%
    01:00 +21°C° 0.1 mm 3 mps 763 mmHg 94%
    02:00 +21°C° 0 mm 3 mps 762 mmHg 94%
    03:00 +21°C° 0 mm 3 mps 762 mmHg 94%
    04:00 +21°C° 0 mm 3 mps 762 mmHg 95%
    05:00 +21°C° 0 mm 3 mps 762 mmHg 94%
    06:00 +21°C° 0 mm 2 mps 762 mmHg 94%
    07:00 +20°C° 0 mm 2 mps 762 mmHg 93%
    08:00 +23°C° 0.1 mm 2 mps 763 mmHg 86%
    09:00 +25°C° 0.1 mm 1 mps 763 mmHg 79%
    10:00 +27°C° 0.1 mm 1 mps 763 mmHg 72%
    11:00 +28°C° 0.1 mm 1 mps 763 mmHg 68%
    12:00 +28°C° 0.1 mm 2 mps 763 mmHg 64%
    13:00 +29°C° 0.1 mm 2 mps 762 mmHg 60%
    14:00 +29°C° 0.1 mm 3 mps 762 mmHg 63%
    15:00 +28°C° 0.1 mm 4 mps 762 mmHg 65%
    16:00 +28°C° 0.1 mm 5 mps 761 mmHg 68%
    17:00 +26°C° 0.2 mm 6 mps 762 mmHg 75%
    18:00 +24°C° 0.2 mm 7 mps 762 mmHg 83%
    19:00 +23°C° 0.2 mm 8 mps 762 mmHg 91%
    20:00 +23°C° 0.2 mm 8 mps 763 mmHg 89%
    21:00 +22°C° 0.2 mm 8 mps 763 mmHg 87%
    22:00 +22°C° 0.2 mm 8 mps 763 mmHg 85%
    23:00 +22°C° 0.1 mm 8 mps 763 mmHg 85%

    Day after tomorrow, 21 January, Tuesday

    Time Temperature Precipitation Wind Pressure Humidity
    00:00 +22°C° 0.1 mm 8 mps 763 mmHg 84%
    01:00 +22°C° 0.1 mm 8 mps 763 mmHg 84%
    02:00 +22°C° 0.1 mm 7 mps 762 mmHg 85%
    03:00 +22°C° 0.1 mm 7 mps 762 mmHg 85%
    04:00 +22°C° 0.1 mm 7 mps 762 mmHg 86%
    05:00 +21°C° 0.1 mm 7 mps 762 mmHg 85%
    06:00 +21°C° 0.1 mm 7 mps 762 mmHg 85%
    07:00 +21°C° 0.1 mm 7 mps 762 mmHg 85%
    08:00 +21°C° 0 mm 7 mps 763 mmHg 81%
    09:00 +22°C° 0 mm 7 mps 763 mmHg 77%
    10:00 +22°C° 0 mm 7 mps 764 mmHg 73%
    11:00 +22°C° 0 mm 7 mps 763 mmHg 73%
    12:00 +22°C° 0 mm 7 mps 763 mmHg 73%
    13:00 +21°C° 0 mm 7 mps 762 mmHg 72%
    14:00 +21°C° 0 mm 7 mps 762 mmHg 71%
    15:00 +21°C° 0 mm 8 mps 762 mmHg 70%
    16:00 +21°C° 0 mm 8 mps 762 mmHg 69%
    17:00 +21°C° 0 mm 8 mps 762 mmHg 70%
    18:00 +20°C° 0 mm 8 mps 762 mmHg 70%
    19:00 +20°C° 0 mm 8 mps 762 mmHg 71%
    20:00 +18°C° 0.1 mm 8 mps 763 mmHg 72%
    21:00 +18°C° 0.1 mm 8 mps 763 mmHg 73%
    22:00 +18°C° 0.1 mm 7 mps 763 mmHg 75%
    23:00 +18°C° 0.1 mm 7 mps 763 mmHg 73%

    22 January, Wednesday

    Time Temperature Precipitation Wind Pressure Humidity
    00:00 +18°C° 0.1 mm 7 mps 763 mmHg 71%
    01:00 +18°C° 0.1 mm 7 mps 762 mmHg 69%
    02:00 +18°C° 0 mm 7 mps 762 mmHg 68%
    03:00 +17°C° 0 mm 8 mps 762 mmHg 67%
    04:00 +17°C° 0 mm 8 mps 762 mmHg 66%
    05:00 +16°C° 0 mm 8 mps 762 mmHg 66%
    06:00 +16°C° 0 mm 8 mps 762 mmHg 66%
    07:00 +15°C° 0 mm 8 mps 762 mmHg 66%
    08:00 +16°C° 0 mm 8 mps 763 mmHg 64%
    09:00 +16°C° 0 mm 8 mps 764 mmHg 62%
    10:00 +16°C° 0 mm 9 mps 764 mmHg 60%
    11:00 +17°C° 0 mm 8 mps 764 mmHg 58%
    12:00 +17°C° 0 mm 8 mps 763 mmHg 57%
    13:00 +18°C° 0 mm 8 mps 763 mmHg 56%
    14:00 +18°C° 0 mm 7 mps 762 mmHg 56%
    15:00 +18°C° 0 mm 7 mps 762 mmHg 57%
    16:00 +19°C° 0 mm 6 mps 761 mmHg 57%
    17:00 +17°C° 0 mm 6 mps 762 mmHg 59%
    18:00 +16°C° 0 mm 5 mps 762 mmHg 61%
    19:00 +15°C° 0 mm 5 mps 762 mmHg 63%
    20:00 +15°C° 0 mm 4 mps 762 mmHg 64%
    21:00 +15°C° 0 mm 4 mps 762 mmHg 65%
    22:00 +15°C° 0 mm 4 mps 762 mmHg 66%
    23:00 +17°C° 0 mm 4 mps 762 mmHg 66%

    23 January, Thursday

    Time Temperature Precipitation Wind Pressure Humidity
    00:00 +17°C° 0 mm 3 mps 762 mmHg 66%
    01:00 +18°C° 0 mm 3 mps 761 mmHg 66%
    02:00 +17°C° 0.1 mm 3 mps 761 mmHg 67%
    03:00 +17°C° 0.1 mm 2 mps 761 mmHg 68%
    04:00 +17°C° 0.1 mm 2 mps 761 mmHg 69%
    05:00 +17°C° 0.1 mm 2 mps 761 mmHg 68%
    06:00 +17°C° 0.1 mm 2 mps 761 mmHg 67%
    07:00 +17°C° 0.1 mm 2 mps 762 mmHg 66%
    08:00 +18°C° 0 mm 2 mps 762 mmHg 64%
    09:00 +19°C° 0 mm 2 mps 762 mmHg 61%
    10:00 +20°C° 0 mm 2 mps 763 mmHg 58%
    11:00 +23°C° 0 mm 2 mps 762 mmHg 57%
    12:00 +24°C° 0 mm 2 mps 762 mmHg 55%
    13:00 +25°C° 0 mm 3 mps 761 mmHg 54%
    14:00 +25°C° 0 mm 2 mps 761 mmHg 54%
    15:00 +24°C° 0 mm 2 mps 760 mmHg 55%
    16:00 +24°C° 0 mm 2 mps 760 mmHg 56%
    17:00 +22°C° 0 mm 3 mps 760 mmHg 60%
    18:00 +21°C° 0 mm 3 mps 761 mmHg 64%
    19:00 +20°C° 0 mm 4 mps 761 mmHg 68%
    20:00 +19°C° 0 mm 4 mps 761 mmHg 69%
    21:00 +19°C° 0 mm 4 mps 762 mmHg 71%
    22:00 +19°C° 0 mm 5 mps 762 mmHg 73%
    23:00 +17°C° 0.2 mm 5 mps 762 mmHg 75%

    24 January, Friday

    Time Temperature Precipitation Wind Pressure Humidity
    00:00 +18°C° 0.2 mm 4 mps 761 mmHg 77%
    01:00 +18°C° 0.2 mm 4 mps 761 mmHg 78%
    02:00 +18°C° 0.3 mm 4 mps 761 mmHg 80%
    03:00 +18°C° 0.3 mm 4 mps 761 mmHg 82%
    04:00 +17°C° 0.3 mm 4 mps 761 mmHg 83%
    05:00 +17°C° 0.3 mm 4 mps 761 mmHg 85%
    06:00 +16°C° 0.3 mm 5 mps 761 mmHg 88%
    07:00 +16°C° 0.3 mm 5 mps 762 mmHg 90%
    08:00 +20°C° 0.1 mm 5 mps 762 mmHg 83%
    09:00 +22°C° 0.1 mm 5 mps 762 mmHg 75%
    10:00 +24°C° 0.1 mm 6 mps 763 mmHg 68%
    11:00 +26°C° 0.2 mm 6 mps 763 mmHg 65%
    12:00 +26°C° 0.2 mm 7 mps 762 mmHg 62%
    13:00 +27°C° 0.2 mm 7 mps 762 mmHg 59%
    14:00 +27°C° 0.2 mm 7 mps 761 mmHg 62%
    15:00 +27°C° 0.2 mm 8 mps 761 mmHg 65%
    16:00 +26°C° 0.2 mm 8 mps 761 mmHg 67%
    17:00 +24°C° 0.1 mm 8 mps 761 mmHg 72%
    18:00 +23°C° 0.1 mm 8 mps 761 mmHg 77%
    19:00 +22°C° 0.1 mm 8 mps 761 mmHg 81%
    20:00 +21°C° 0 mm 8 mps 762 mmHg 84%
    21:00 +21°C° 0 mm 7 mps 762 mmHg 86%
    22:00 +20°C° 0 mm 7 mps 762 mmHg 89%
    23:00 +20°C° 0 mm 7 mps 762 mmHg 90%
    Show more